Miscellaneous Local Product
Issued by NWS North Platte, NE

Home | Current Version | Previous Version | Text Only | Print | Product List | Glossary On
Versions: 1 2 3 4 5 6 7 8 9 10 11 12 13 14 15 16 17 18 19 20 21 22 23 24 25 26 27 28 29 30 31 32 33 34 35 36 37 38 39 40 41 42 43 44 45 46 47 48 49 50
000
AXUS43 KLBF 070710
MISLBF


WESTERN AND NORTH CENTRAL NEBRASKA HOURLY WEATHER ROUNDUP
NATIONAL WEATHER SERVICE NORTH PLATTE NE
100 AM CST WED DEC 07 2016

NOTE: "FAIR" INDICATES FEW OR NO CLOUDS BELOW 12,000 FEET WITH NO
SIGNIFICANT WEATHER AND/OR OBSTRUCTIONS TO VISIBILITY.

NOTE: STATIONS NOT REPORTING VARIABLES SUCH AS SKY/WEATHER OR
PRESSURE ARE PROVIDED BY RAWS AND APRS NETWORKS AND ARE NOT UNDER
NATIONAL WEATHER SERVICE QUALITY CONTROL.

...OBSERVATIONS IN AND NEAR THE EASTERN PANHANDLE OF NEBRASKA...

CITY           SKY/WX    TMP DP  RH WIND       PRES   REMARKS
PINE RIDGE     CLOUDY     3  -1  83 CALM      30.13R
CHADRON        CLOUDY     9   1  70 W3        30.13R
ALLIANCE       CLOUDY    10   1  67 N15       30.06R WCI  -7
SIDNEY         CLOUDY    16   4  59 NE12      30.01R WCI   3
CRESCENT LAKE    N/A     12   4  71 N3          N/A
$$

...OBSERVATIONS IN NORTHERN NEBRASKA AND FAR SOUTHERN SOUTH DAKOTA...

CITY           SKY/WX    TMP DP  RH WIND       PRES   REMARKS
WINNER         FAIR       9   1  70 W14       30.16S WCI  -7
VALENTINE      CLOUDY     7  -2  66 NW8       30.14S WCI  -6
THEDFORD       CLOUDY    11   3  70 N6        30.11F WCI   1
AINSWORTH      CLOUDY    10   2  72 NW13      30.12F WCI  -6
O`NEILL        CLOUDY    12   4  71 NW14      30.16R WCI  -4
ORD            CLOUDY    14   2  58 NW15      30.15S WCI  -1
BROKEN BOW     CLOUDY    14   3  61 N9        30.12F WCI   2
VALENTINE NWR    N/A      8  -2  64 NW12        N/A  WCI  -7
BUTTE            N/A      8   2  75 W16         N/A  WCI -10
HALSEY           N/A     11  -1  58 NW6         N/A  WCI   2
CHAMBERS         N/A     11  -2  55 N3          N/A
EWING            N/A     13   6  72 NW10G17     N/A  WCI   0
$$

...OBSERVATIONS IN SOUTHWEST NEBRASKA AND FAR NORTHEAST COLORADO...

CITY           SKY/WX    TMP DP  RH WIND       PRES   REMARKS
WRAY           LGT SNOW  23  18  80 E6        29.97  WCI  16
HOLYOKE        FAIR      25  19  80 NE6       30.03R WCI  18
IMPERIAL       CLOUDY    20  17  88 NE7       30.02F WCI  11
OGALLALA       CLOUDY    19   8  61 NE9       30.08R WCI   8
NORTH PLATTE   CLOUDY    15   2  56 NE5       30.09F WCI   8
MCCOOK         CLOUDY    23   7  50 E10       30.08F WCI  12
LEXINGTON      CLOUDY    22   7  52 N12       30.12F WCI  10
STAPLETON        N/A     11   2  66 CALM        N/A
GOTHENBURG       N/A     18   4  53 N6          N/A  WCI  10
CALLAWAY         N/A     13   4  65 NE6         N/A  WCI   4
$$

...OBSERVATIONS IN CENTRAL LINCOLN COUNTY AREA...

CITY           SKY/WX    TMP DP  RH WIND       PRES   REMARKS
N.P. AIRPORT   CLOUDY    15   2  56 NE5       30.09F WCI   8
N.P. DOWNTOWN    N/A     14   3  62 NE3         N/A
N.P. SOUTHEAST   N/A     14   2  60 NE3         N/A
N.P. HILLCREST   N/A     14   4  65 NE12        N/A  WCI   0
$$

...SOME OBSERVATIONS FROM AROUND THE REGION...

CITY           SKY/WX    TMP DP  RH WIND       PRES   REMARKS
LARAMIE        CLOUDY    10   2  69 SE20      29.75R WCI  -9
CHEYENNE       LGT SNOW   9   5  84 NE9       29.85F FOG     WCI  -4
DENVER         LGT SNOW  17  13  84 E6        29.89R FOG     WCI   9
AKRON          LGT SNOW  18  15  88 E9        29.92F FOG     WCI   7
SCOTTSBLUFF    CLOUDY    16  -1  47 N9        30.04F WCI   4
RAPID CITY     CLOUDY     3  -4  72 N12       30.13R WCI -13
BISMARCK       CLOUDY     5   0  79 W23G31    30.08S WCI -17
PIERRE         CLOUDY     9   2  73 NW23      30.14R WCI -11
SIOUX FALLS    CLEAR     11   5  77 W21       30.06R WCI  -8
OMAHA          CLOUDY    22  10  60 NW17      30.18R WCI   8
GRAND ISLAND   CLOUDY    20   7  57 N14       30.17R WCI   7
KANSAS CITY    CLOUDY    30  13  49 NW7       30.15R WCI  23
WICHITA        CLOUDY    35  16  45 E7        30.13R WCI  29
OKLAHOMA CITY  PTCLDY    34  21  59 NE5       30.09F WCI  30
DALLAS         PTCLDY    41  33  73 N6        30.05F
AMARILLO       CLOUDY    25  16  68 SE13      29.96S WCI  14
DODGE CITY     CLOUDY    22  14  71 E6        30.04F WCI  14
HAYS           CLOUDY    28  18  66 E3        30.10R
GOODLAND       CLOUDY    24   2  38 SE6       29.97R WCI  17
$$




USA.gov is the U.S. government's official web portal to all federal, state and local government web resources and services.